Location: Unspecified
(0.0000°N, 0.0000°E)
Time: 17:28:36

Hubble Space Telescope - Visible Passes

Search period start: 01 December 2015 00:00
Search period end: 11 December 2015 00:00
Orbit: 540 x 544 km, 28.5° (Epoch: 29 November)

Date Brightness Start Highest point End Pass type
(mag) Time Alt. Az. Time Alt. Az. Time Alt. Az.
01 Dec 0.7 05:06:40 80° ESE 05:06:40 80° ESE 05:10:42 10° ENE visible
02 Dec 2.2 04:59:14 30° NE 04:59:14 30° NE 05:01:27 10° NE visible
03 Dec 3.4 04:51:38 13° NE 04:51:38 13° NE 04:52:06 10° NE visible
